New Century, KS

5:12 PM CST on December 07, 2016 (GMT -0600)
New Century Aircenter

Weather History for KIXD - August, 2013

Change the Weather History Date:

Monday, August 19, 2013

  Actual Average Record
Temperature  
Mean Temperature 74 °F -  
Max Temperature 84 °F 86 °F 104 °F (2003)
Min Temperature 63 °F 64 °F 55 °F (2001)
Cooling Degree Days 8    
Growing Degree Days 24 (Base 50)    
Moisture  
Dew Point 63 °F    
Average Humidity 70    
Maximum Humidity 90    
Minimum Humidity 47    
Precipitation  
Precipitation 0.00 in - - ()
Sea Level Pressure  
Sea Level Pressure 30.06 in    
Wind  
Wind Speed 7 mph (SSE)    
Max Wind Speed 13 mph    
Max Gust Speed 18 mph    
Visibility 10 miles    
Events      
Averages and records for this station are not official NWS values.
T = Trace of Precipitation, MM = Missing Value Source: NWS Daily Summary

Daily Weather History Graph

Daily Weather History Graph

Search for Another Location

Airport or City:

Trip Planner

Search our weather history database for the weather conditions in past years. The results will help you decide how hot, cold, wet, or windy it might be!

Date:

Astronomy

Aug. 19, 2013 Rise Set
Actual Time 6:37 AM CDT 8:08 PM CDT
Civil Twilight 6:08 AM CDT 8:36 PM CDT
Nautical Twilight 5:35 AM CDT 9:10 PM CDT
Astronomical Twilight 4:59 AM CDT 9:45 PM CDT
Moon 7:00 PM CDT (8/19) 4:57 AM CDT (8/19)
Length of Visible Light 14h 27m
Length of Day
13h 31m
Waxing Gibbous, 97% of the Moon is Illuminated
Aug 19
Waxing Gibbous
Aug 20
Full
Aug 28
Last Quarter
Sep 5
New
Sep 12
First Quarter

Hourly Weather History & Observations

Time (CDT) Temp. Heat Index Dew Point Humidity Pressure Visibility Wind Dir Wind Speed Gust Speed Precip Events Conditions
12:53 AM 64.0 °F - 59.0 °F 84% 30.10 in 10.0 mi SE 3.5 mph - N/A   Clear
1:53 AM 66.0 °F - 60.1 °F 81% 30.09 in 10.0 mi SE 5.8 mph - N/A   Clear
2:53 AM 64.9 °F - 60.1 °F 84% 30.07 in 10.0 mi SE 6.9 mph - N/A   Clear
3:53 AM 63.0 °F - 59.0 °F 87% 30.06 in 10.0 mi SE 4.6 mph - N/A   Clear
4:53 AM 64.0 °F - 60.1 °F 87% 30.07 in 10.0 mi SE 5.8 mph - N/A   Clear
5:53 AM 63.0 °F - 60.1 °F 90% 30.07 in 10.0 mi SE 5.8 mph - N/A   Clear
6:53 AM 63.0 °F - 60.1 °F 90% 30.09 in 10.0 mi ESE 3.5 mph - N/A   Clear
7:53 AM 66.0 °F - 62.1 °F 87% 30.10 in 10.0 mi SE 6.9 mph - N/A   Mostly Cloudy
8:53 AM 71.1 °F - 64.0 °F 78% 30.09 in 10.0 mi SSE 9.2 mph - N/A   Clear
9:53 AM 75.9 °F - 64.0 °F 67% 30.10 in 10.0 mi South 8.1 mph - N/A   Clear
10:53 AM 79.0 °F - 64.0 °F 60% 30.11 in 10.0 mi SSE 9.2 mph - N/A   Scattered Clouds
11:53 AM 80.1 °F 81.5 °F 63.0 °F 56% 30.10 in 10.0 mi SSE 12.7 mph - N/A   Partly Cloudy
12:53 PM 82.0 °F 83.1 °F 63.0 °F 52% 30.09 in 10.0 mi SSE 10.4 mph - N/A   Clear
1:53 PM 82.9 °F 84.4 °F 64.0 °F 53% 30.07 in 10.0 mi SSE 10.4 mph - N/A   Partly Cloudy
2:53 PM 82.9 °F 83.7 °F 62.1 °F 49% 30.05 in 10.0 mi South 8.1 mph 18.4 mph N/A   Clear
3:53 PM 84.0 °F 84.5 °F 62.1 °F 47% 30.03 in 10.0 mi South 11.5 mph - N/A   Clear
4:53 PM 84.0 °F 84.5 °F 62.1 °F 47% 30.01 in 10.0 mi SSE 8.1 mph - N/A   Clear
5:53 PM 82.9 °F 84.4 °F 64.0 °F 53% 30.00 in 10.0 mi South 10.4 mph - N/A   Clear
6:53 PM 81.0 °F 82.7 °F 64.9 °F 58% 30.00 in 10.0 mi South 6.9 mph - N/A   Clear
7:53 PM 75.9 °F - 66.0 °F 71% 30.00 in 10.0 mi SSE 4.6 mph - N/A   Clear
8:53 PM 75.9 °F - 64.9 °F 69% 30.01 in 10.0 mi SE 5.8 mph - N/A   Clear
9:53 PM 73.0 °F - 64.9 °F 76% 30.02 in 10.0 mi SE 5.8 mph - N/A   Clear
10:53 PM 72.0 °F - 64.0 °F 76% 30.02 in 10.0 mi SE 5.8 mph - N/A   Clear
11:53 PM 69.1 °F - 63.0 °F 81% 30.02 in 10.0 mi SSE 5.8 mph - N/A   Clear